1513958400.74,40662,7.56,73174.3,-12.19,-12.93,-12.93,0,*6D
1513958401.98,40663,7.56,73188.5,-12.19,-12.93,-12.93,0,*6C
1513958403.25,40664,7.56,73200.5,-12.19,-13.01,-12.89,0,*6A
1513958404.46,40665,7.56,73216.3,-12.17,-12.89,-12.89,0,*64
1513958405.71,40666,7.56,73238.8,-12.19,-12.93,-12.93,0,*69
1513958406.95,40667,7.56,73250.8,-12.19,-12.89,-12.89,0,*68
1513958408.16,40668,7.56,73230.3,-12.17,-12.89,-12.89,0,*69
1513958409.42,40669,7.56,73182.3,-12.17,-12.83,-12.83,0,*68
1513958410.63,40670,7.56,73210.0,-12.17,-12.89,-12.89,0,*60
1513958411.85,40671,7.56,73218.3,-12.17,-12.89,-12.89,0,*61
1513958413.08,40672,7.56,73218.5,-12.17,-12.83,-12.89,0,*68
1513958414.33,40673,7.56,73242.8,-12.19,-12.93,-12.89,0,*66
1513958415.57,40674,7.56,73230.8,-12.19,-12.89,-12.93,0,*61
1513958416.83,40675,7.56,73232.3,-12.17,-12.83,-12.83,0,*65
1513958418.04,40676,7.56,73230.8,-12.17,-12.89,-12.89,0,*66
1513958419.29,40677,7.56,73228.5,-12.19,-12.93,-12.93,0,*69
1513958420.55,40678,7.56,73230.0,-12.13,-12.83,-12.79,0,*69
1513958421.78,40679,7.56,73212.8,-12.17,-12.89,-12.83,0,*63
1513958423.02,40680,7.56,73226.0,-12.17,-12.89,-12.83,0,*65
1513958424.26,40681,7.56,73224.5,-12.17,-12.83,-12.89,0,*64
1513958425.5,40682,7.56,73220.0,-12.19,-12.89,-12.93,0,*68
1513958426.71,40683,7.56,73232.0,-12.17,-12.89,-12.89,0,*6C
1513958427.95,40684,7.56,73210.8,-12.19,-12.89,-12.89,0,*65
1513958429.19,40685,7.56,73198.3,-12.19,-12.89,-12.93,0,*6F
1513958430.44,40686,7.56,73234.8,-12.19,-12.89,-12.89,0,*67
1513958431.68,40687,7.56,73212.3,-12.19,-12.89,-12.89,0,*66
1513958432.92,40688,7.56,73198.8,-12.19,-12.89,-12.93,0,*62
1513958434.15,40689,7.56,73224.5,-12.17,-12.83,-12.89,0,*6C
1513958435.41,40690,7.56,73232.3,-12.17,-12.83,-12.83,0,*6E
1513958436.67,40691,7.56,73244.5,-12.17,-12.83,-12.83,0,*6F
1513958437.91,40692,7.56,73228.3,-12.19,-12.89,-12.89,0,*62
1513958439.15,40693,7.56,73246.8,-12.19,-12.89,-12.93,0,*68
1513958440.39,40694,7.56,73216.0,-12.19,-12.89,-12.89,0,*64
1513958441.64,40695,7.56,73234.5,-12.19,-12.93,-12.89,0,*6E
1513958442.88,40696,7.56,73238.3,-12.19,-12.89,-12.89,0,*66
1513958444.11,40697,7.56,73240.0,-12.17,-12.89,-12.83,0,*63
1513958445.37,40698,7.56,73244.5,-12.17,-12.83,-12.83,0,*66
1513958446.63,40699,7.56,73254.5,-12.17,-12.83,-12.83,0,*67
1513958447.9,40700,7.56,73244.8,-12.17,-12.83,-12.75,0,*6F
1513958449.15,40701,7.56,73228.8,-12.17,-12.83,-12.83,0,*67
1513958450.41,40702,7.56,73236.0,-12.17,-12.83,-12.83,0,*64
1513958451.67,40703,7.56,73264.3,-12.17,-12.83,-12.83,0,*65
1513958452.94,40704,7.56,73248.8,-12.13,-12.79,-12.79,0,*66
1513958454.18,40705,7.56,73244.5,-12.17,-12.83,-12.89,0,*69
1513958455.42,40706,7.56,73244.8,-12.19,-12.89,-12.89,0,*6E
1513958456.68,40707,7.56,73230.8,-12.17,-12.83,-12.83,0,*61
1513958457.92,40708,7.56,73238.8,-12.19,-12.89,-12.89,0,*60
1513958459.16,40709,7.56,73230.8,-12.19,-12.89,-12.89,0,*61
1513958460.4,40710,7.56,73226.5,-12.19,-12.93,-12.89,0,*62
1513958461.67,40711,7.56,73224.5,-12.19,-12.89,-12.79,0,*67
1513958462.91,40712,7.56,73198.3,-12.19,-12.93,-12.89,0,*60
1513958464.15,40713,7.56,73214.3,-12.19,-12.93,-12.89,0,*61
1513958465.39,40714,7.56,73200.5,-12.17,-12.89,-12.83,0,*69
1513958466.65,40715,7.56,73190.0,-12.17,-12.83,-12.83,0,*62
1513958467.89,40716,7.56,73188.0,-12.17,-12.89,-12.83,0,*6B
1513958469.12,40717,7.56,73152.5,-12.17,-12.89,-12.83,0,*6A
1513958470.38,40718,7.56,73188.3,-12.17,-12.83,-12.83,0,*6F
1513958471.64,40719,7.56,73214.3,-12.17,-12.83,-12.83,0,*6E
1513958472.91,40720,7.56,73202.3,-12.13,-12.79,-12.79,0,*60
1513958474.17,40721,7.56,73182.3,-12.17,-12.83,-12.83,0,*65
1513958475.4,40722,7.56,73204.3,-12.17,-12.89,-12.83,0,*6C
1513958476.66,40723,7.56,73220.5,-12.17,-12.83,-12.83,0,*67
1513958477.92,40724,7.56,73232.0,-12.17,-12.83,-12.83,0,*60
1513958479.14,40725,7.56,73224.0,-12.17,-12.89,-12.89,0,*61
1513958480.37,40726,7.56,73258.8,-12.17,-12.89,-12.83,0,*68
1513958481.63,40727,7.56,73244.3,-12.17,-12.83,-12.83,0,*63
1513958482.87,40728,7.56,73244.8,-12.17,-12.89,-12.83,0,*66
1513958484.11,40729,7.56,73240.0,-12.17,-12.83,-12.89,0,*67
1513958485.35,40730,7.56,73256.0,-12.17,-12.89,-12.75,0,*66
1513958486.61,40731,7.56,73250.0,-12.17,-12.83,-12.83,0,*64
1513958487.87,40732,7.56,73240.5,-12.17,-12.75,-12.83,0,*6E
1513958489.14,40733,7.56,73234.8,-12.13,-12.83,-12.79,0,*67
1513958490.4,40734,7.56,73238.0,-12.17,-12.83,-12.83,0,*61
1513958491.63,40735,7.56,73242.8,-12.17,-12.83,-12.89,0,*6A
1513958492.87,40736,7.56,73230.5,-12.17,-12.83,-12.89,0,*69
1513958494.1,40737,7.56,73218.0,-12.17,-12.89,-12.83,0,*68
1513958495.34,40738,7.56,73212.5,-12.17,-12.89,-12.83,0,*67
1513958496.58,40739,7.56,73214.8,-12.17,-12.83,-12.89,0,*66
1513958497.81,40740,7.56,73214.8,-12.17,-12.89,-12.83,0,*68
1513958499.05,40741,7.56,73212.5,-12.17,-12.83,-12.89,0,*69
1513958500.29,40742,7.56,73206.8,-12.19,-12.89,-12.93,0,*65
1513958501.53,40743,7.56,73198.3,-12.19,-12.89,-12.89,0,*6F
1513958502.79,40744,7.56,73194.8,-12.17,-12.83,-12.83,0,*66
1513958504.03,40745,7.56,73190.5,-12.19,-12.89,-12.89,0,*69
1513958505.25,40746,7.56,73182.5,-12.17,-12.89,-12.89,0,*64
1513958506.48,40747,7.56,73194.5,-12.17,-12.83,-12.89,0,*6F
1513958507.72,40748,7.56,73206.0,-12.17,-12.83,-12.89,0,*60
1513958508.93,40749,7.56,73218.5,-12.17,-12.89,-12.89,0,*6B
1513958510.15,40750,7.56,73220.8,-12.17,-12.89,-12.89,0,*63
1513958511.41,40751,7.56,73208.5,-12.13,-12.83,-12.79,0,*63
1513958512.62,40752,7.56,73204.3,-12.17,-12.89,-12.89,0,*61
1513958513.84,40753,7.56,73202.3,-12.17,-12.89,-12.89,0,*60
1513958515.1,40754,7.56,73210.3,-12.13,-12.79,-12.79,0,*63
1513958516.34,40755,7.56,73214.3,-12.17,-12.89,-12.79,0,*69
1513958517.61,40756,7.56,73228.5,-12.13,-12.83,-12.79,0,*64
1513958518.82,40757,7.56,73216.8,-12.17,-12.89,-12.89,0,*64
1513958520.03,40758,7.56,73232.5,-12.17,-12.89,-12.89,0,*6B
1513958521.27,40759,7.56,73234.3,-12.17,-12.83,-12.89,0,*60
1513958522.53,40760,7.56,73222.5,-12.13,-12.83,-12.79,0,*61
1513958523.77,40761,7.56,73224.8,-12.17,-12.83,-12.89,0,*6B
1513958525.01,40762,7.56,73226.5,-12.19,-12.89,-12.89,0,*6C
1513958526.25,40763,7.56,73222.5,-12.19,-12.93,-12.89,0,*66
1513958527.51,40764,7.56,73224.3,-12.17,-12.83,-12.83,0,*64
1513958528.75,40765,7.56,73214.3,-12.17,-12.83,-12.89,0,*6F
1513958529.99,40766,7.56,73214.5,-12.17,-12.89,-12.83,0,*6C
1513958531.22,40767,7.56,73212.8,-12.17,-12.83,-12.89,0,*6D
1513958532.44,40768,7.56,73208.5,-12.17,-12.89,-12.89,0,*68
1513958533.67,40769,7.56,73210.0,-12.17,-12.89,-12.83,0,*63
1513958534.94,40770,7.56,73202.3,-12.13,-12.79,-12.79,0,*65
1513958536.18,40771,7.56,73194.0,-12.19,-12.93,-12.93,0,*6E
1513958537.43,40772,7.56,73190.8,-12.19,-12.93,-12.93,0,*6D
1513958538.66,40773,7.56,73184.3,-12.17,-12.83,-12.89,0,*68
1513958539.88,40774,7.56,73180.8,-12.17,-12.89,-12.89,0,*65
1513958541.14,40775,7.56,73174.5,-12.17,-12.83,-12.83,0,*64
1513958542.37,40776,7.56,73182.0,-12.17,-12.83,-12.89,0,*6D
1513958543.61,40777,7.56,73186.5,-12.19,-12.93,-12.93,0,*68
1513958544.88,40778,7.56,73202.0,-12.17,-12.83,-12.75,0,*60
1513958546.14,40779,7.56,73214.5,-12.17,-12.83,-12.83,0,*68
1513958547.4,40780,7.56,73202.8,-12.17,-12.83,-12.83,0,*6E
1513958548.66,40781,7.56,73206.8,-12.17,-12.83,-12.83,0,*6F
1513958549.89,40782,7.56,73220.0,-12.17,-12.83,-12.89,0,*66
1513958551.16,40783,7.56,73222.3,-12.13,-12.79,-12.83,0,*6C
1513958552.39,40784,7.56,73238.8,-12.17,-12.89,-12.83,0,*60
1513958553.65,40785,7.56,73230.0,-12.17,-12.83,-12.83,0,*6B
1513958554.89,40786,7.56,73204.5,-12.17,-12.89,-12.83,0,*62
1513958556.15,40787,7.56,73200.8,-12.17,-12.83,-12.83,0,*69
1513958557.36,40788,7.56,73198.8,-12.17,-12.89,-12.89,0,*66
1513958558.62,40789,7.56,73234.0,-12.17,-12.83,-12.83,0,*67
1513958559.88,40790,7.56,73232.8,-12.17,-12.83,-12.83,0,*6F
1513958561.12,40791,7.56,73220.8,-12.17,-12.83,-12.89,0,*64
1513958562.38,40792,7.56,73202.8,-12.17,-12.83,-12.83,0,*6D
1513958563.64,40793,7.56,73184.3,-12.17,-12.83,-12.83,0,*6C
1513958564.9,40794,7.56,73190.3,-12.17,-12.83,-12.83,0,*6B
1513958566.16,40795,7.56,73180.8,-12.17,-12.75,-12.83,0,*63
1513958567.43,40796,7.56,73180.3,-12.13,-12.79,-12.71,0,*65
1513958568.69,40797,7.56,73212.3,-12.17,-12.83,-12.83,0,*68
1513958569.93,40798,7.56,73186.8,-12.17,-12.89,-12.83,0,*6D
1513958571.19,40799,7.56,73208.8,-12.13,-12.79,-12.79,0,*62
1513958572.45,40800,7.56,73200.8,-12.17,-12.83,-12.83,0,*69
1513958573.71,40801,7.56,73158.3,-12.17,-12.83,-12.83,0,*68
1513958574.95,40802,7.56,73166.3,-12.19,-12.89,-12.89,0,*65
1513958576.21,40803,7.56,73172.0,-12.17,-12.83,-12.83,0,*6A
1513958577.43,40804,7.56,73176.3,-12.17,-12.89,-12.89,0,*6D
1513958578.69,40805,7.56,73180.8,-12.17,-12.83,-12.83,0,*6C
1513958579.95,40806,7.56,73188.0,-12.17,-12.83,-12.75,0,*66
1513958581.22,40807,7.56,73178.8,-12.13,-12.79,-12.79,0,*6A
1513958582.45,40808,7.56,73188.3,-12.17,-12.83,-12.89,0,*6B
1513958583.71,40809,7.56,73202.5,-12.17,-12.83,-12.83,0,*60
1513958584.95,40810,7.56,73216.3,-12.17,-12.83,-12.89,0,*62
1513958586.18,40811,7.56,73218.0,-12.17,-12.89,-12.83,0,*63
1513958587.45,40812,7.56,73242.3,-12.17,-12.83,-12.75,0,*63
1513958588.71,40813,7.56,73218.5,-12.17,-12.83,-12.83,0,*6B
1513958589.94,40814,7.56,73226.5,-12.17,-12.89,-12.83,0,*66
1513958591.2,40815,7.56,73236.3,-12.17,-12.83,-12.83,0,*6D
1513958592.46,40816,7.56,73214.3,-12.17,-12.83,-12.83,0,*6E
1513958593.72,40817,7.56,73220.0,-12.17,-12.83,-12.83,0,*6F
1513958594.96,40818,7.56,73242.3,-12.17,-12.83,-12.89,0,*6A
1513958596.22,40819,7.56,73240.5,-12.17,-12.83,-12.83,0,*61
1513958597.45,40820,7.56,73242.5,-12.17,-12.89,-12.83,0,*61
1513958598.72,40821,7.56,73230.5,-12.17,-12.83,-12.75,0,*63
1513958599.98,40822,7.56,73208.8,-12.13,-12.83,-12.71,0,*60
1513958601.24,40823,7.56,73210.5,-12.17,-12.83,-12.83,0,*68
1513958602.48,40824,7.56,73190.3,-12.17,-12.89,-12.83,0,*65
1513958603.69,40825,7.56,73204.3,-12.17,-12.89,-12.89,0,*6E
1513958604.93,40826,7.56,73174.8,-12.19,-12.89,-12.89,0,*63
1513958606.2,40827,7.56,73184.8,-12.17,-12.83,-12.75,0,*65
1513958607.46,40828,7.56,73266.3,-12.17,-12.83,-12.83,0,*63
1513958608.72,40829,7.56,73188.0,-12.17,-12.83,-12.75,0,*6B
1513958609.98,40830,7.56,73182.3,-12.17,-12.83,-12.83,0,*6A
1513958611.24,40831,7.56,73172.0,-12.17,-12.83,-12.83,0,*6B
1513958612.47,40832,7.56,73186.5,-12.17,-12.89,-12.83,0,*62
1513958613.71,40833,7.56,73234.5,-12.17,-12.89,-12.83,0,*63
1513958614.98,40834,7.56,73196.5,-12.17,-12.75,-12.83,0,*67
1513958616.19,40835,7.56,73212.8,-12.17,-12.89,-12.89,0,*6F
1513958617.46,40836,7.56,73224.5,-12.13,-12.79,-12.79,0,*68
1513958618.72,40837,7.56,73234.5,-12.17,-12.83,-12.83,0,*6D
1513958619.98,40838,7.56,73226.3,-12.17,-12.83,-12.83,0,*62
1513958621.24,40839,7.56,73214.3,-12.13,-12.83,-12.79,0,*62
1513958622.5,40840,7.56,73218.5,-12.17,-12.83,-12.83,0,*6D
1513958623.76,40841,7.56,73220.5,-12.17,-12.83,-12.83,0,*6C
1513958625.0,40842,7.56,73206.0,-12.17,-12.89,-12.75,0,*6C
1513958626.24,40843,7.56,73204.3,-12.17,-12.79,-12.89,0,*61
1513958627.5,40844,7.56,73184.0,-12.13,-12.79,-12.79,0,*6D
1513958628.77,40845,7.56,73176.5,-12.13,-12.79,-12.79,0,*6C
1513958630.03,40846,7.56,73164.3,-12.17,-12.83,-12.83,0,*6B
1513958631.27,40847,7.56,73168.8,-12.17,-12.89,-12.83,0,*60
1513958632.53,40848,7.56,73152.8,-12.17,-12.83,-12.83,0,*65
1513958633.74,40849,7.56,73154.3,-12.17,-12.89,-12.89,0,*64
1513958634.95,40850,7.56,73148.5,-12.17,-12.89,-12.89,0,*6C
1513958636.21,40851,7.56,73144.5,-12.13,-12.83,-12.83,0,*69
1513958637.43,40852,7.63,73162.8,-12.17,-12.89,-12.89,0,*6E
1513958638.69,40853,7.56,73196.5,-12.17,-12.83,-12.83,0,*6F
1513958639.93,40854,7.56,73202.8,-12.13,-12.89,-12.83,0,*66
1513958641.14,40855,7.56,73192.0,-12.17,-12.89,-12.89,0,*69
1513958642.37,40856,7.56,73192.8,-12.17,-12.83,-12.89,0,*60
1513958643.63,40857,7.56,73192.3,-12.17,-12.83,-12.83,0,*6B
1513958644.87,40858,7.56,73216.5,-12.17,-12.89,-12.83,0,*6E
1513958646.09,40859,7.56,73216.0,-12.17,-12.89,-12.89,0,*65
1513958647.32,40860,7.56,73212.3,-12.17,-12.89,-12.83,0,*65
1513958648.58,40861,7.56,73216.0,-12.17,-12.83,-12.83,0,*6E
1513958649.84,40862,7.56,73136.5,-12.17,-12.83,-12.83,0,*6D
1513958651.1,40863,7.56,73124.0,-12.17,-12.83,-12.83,0,*6C
1513958652.36,40864,7.56,73124.0,-12.17,-12.83,-12.83,0,*6B
1513958653.62,40865,7.56,73136.3,-12.17,-12.83,-12.83,0,*6A
1513958654.83,40866,7.56,73156.0,-12.17,-12.89,-12.89,0,*69
1513958656.07,40867,7.56,73160.8,-12.17,-12.83,-12.89,0,*62
1513958657.3,40868,7.56,73158.0,-12.17,-12.83,-12.89,0,*6D
1513958658.56,40869,7.56,73134.3,-12.17,-12.83,-12.83,0,*66
1513958659.78,40870,7.56,73110.3,-12.17,-12.89,-12.89,0,*6E
1513958661.04,40871,7.56,73178.3,-12.13,-12.83,-12.83,0,*6B
1513958662.25,40872,7.56,73214.0,-12.17,-12.89,-12.89,0,*6C
1513958663.47,40873,7.56,73164.5,-12.17,-12.89,-12.89,0,*6D
1513958664.7,40874,7.56,73150.0,-12.17,-12.83,-12.89,0,*60
1513958665.94,40875,7.56,73170.0,-12.17,-12.83,-12.89,0,*61
1513958667.2,40876,7.56,73204.8,-12.17,-12.79,-12.83,0,*6D
1513958668.44,40877,7.56,73226.3,-12.17,-12.83,-12.89,0,*63
1513958669.7,40878,7.56,73206.3,-12.17,-12.83,-12.83,0,*66
1513958670.91,40879,7.56,73238.5,-12.17,-12.89,-12.89,0,*67
1513958672.17,40880,7.56,73198.3,-12.17,-12.83,-12.83,0,*61
1513958673.41,40881,7.56,73200.3,-12.17,-12.89,-12.83,0,*6A
1513958674.67,40882,7.56,73186.3,-12.13,-12.83,-12.83,0,*67
1513958675.88,40883,7.56,73198.3,-12.17,-12.89,-12.89,0,*62
1513958677.12,40884,7.56,73216.8,-12.17,-12.89,-12.83,0,*6F
1513958678.35,40885,7.56,73216.0,-12.17,-12.83,-12.89,0,*6E
1513958679.57,40886,7.56,73190.0,-12.17,-12.89,-12.89,0,*67
1513958680.83,40887,7.56,73224.0,-12.13,-12.79,-12.79,0,*62
1513958682.09,40888,7.56,73232.0,-12.17,-12.83,-12.83,0,*69
1513958683.33,40889,7.56,73252.5,-12.17,-12.89,-12.83,0,*62
1513958684.54,40890,7.56,73228.0,-12.17,-12.89,-12.89,0,*60
1513958685.78,40891,7.56,73162.0,-12.17,-12.83,-12.89,0,*6B
1513958687.02,40892,7.56,73168.8,-12.17,-12.89,-12.83,0,*68
1513958688.28,40893,7.56,73198.0,-12.17,-12.83,-12.83,0,*63
1513958689.51,40894,7.56,73216.5,-12.17,-12.89,-12.83,0,*6E
1513958690.77,40895,7.56,73174.0,-12.17,-12.83,-12.83,0,*65
1513958691.99,40896,7.56,73178.0,-12.17,-12.89,-12.89,0,*66
1513958693.22,40897,7.56,73210.5,-12.17,-12.89,-12.83,0,*6D
1513958694.49,40898,7.56,73230.0,-12.13,-12.79,-12.79,0,*6C
1513958695.75,40899,7.56,73244.8,-12.17,-12.83,-12.83,0,*69
1513958696.99,40900,7.56,73258.0,-12.17,-12.83,-12.89,0,*62
1513958698.25,40901,7.56,73250.8,-12.13,-12.79,-12.79,0,*6D
1513958699.51,40902,7.56,73244.0,-12.17,-12.83,-12.83,0,*6A
1513958700.75,40903,7.56,73246.0,-12.17,-12.89,-12.83,0,*61
1513958701.96,40904,7.56,73244.5,-12.17,-12.89,-12.89,0,*6C
1513958703.23,40905,7.56,73226.8,-12.17,-12.75,-12.83,0,*64
1513958704.47,40906,7.56,73234.0,-12.17,-12.83,-12.89,0,*64
1513958705.73,40907,7.56,73228.8,-12.17,-12.79,-12.83,0,*6A
1513958706.97,40908,7.56,73220.8,-12.17,-12.89,-12.83,0,*6A
1513958708.2,40909,7.56,73204.5,-12.17,-12.89,-12.83,0,*6B
1513958709.44,40910,7.56,73166.5,-12.17,-12.89,-12.83,0,*63
1513958710.65,40911,7.56,73154.0,-12.17,-12.89,-12.89,0,*68
1513958711.89,40912,7.56,73134.3,-12.17,-12.83,-12.89,0,*61
1513958713.1,40913,7.56,73138.5,-12.17,-12.89,-12.89,0,*6A
1513958714.34,40914,7.56,73136.0,-12.17,-12.89,-12.83,0,*67
1513958715.58,40915,7.56,73134.8,-12.17,-12.83,-12.89,0,*66
1513958716.79,40916,7.56,73142.3,-12.17,-12.89,-12.89,0,*6F
1513958718.03,40917,7.56,73148.8,-12.13,-12.83,-12.89,0,*60
1513958719.26,40918,7.56,73168.3,-12.17,-12.89,-12.83,0,*6B
1513958720.48,40919,7.56,73192.0,-12.17,-12.89,-12.89,0,*60
1513958721.71,40920,7.56,73220.0,-12.17,-12.89,-12.83,0,*60
1513958722.97,40921,7.56,73224.3,-12.17,-12.83,-12.83,0,*6B
1513958724.21,40922,7.56,73228.0,-12.17,-12.83,-12.89,0,*62
1513958725.45,40923,7.56,73228.8,-12.17,-12.89,-12.83,0,*63
1513958726.66,40924,7.56,73232.0,-12.17,-12.89,-12.89,0,*6E
1513958727.9,40925,7.56,73238.8,-12.19,-12.89,-12.93,0,*6A
1513958729.14,40926,7.56,73238.0,-12.17,-12.89,-12.83,0,*66
1513958730.4,40927,7.56,73244.0,-12.17,-12.83,-12.83,0,*6D
1513958731.64,40928,7.56,73248.3,-12.17,-12.83,-12.89,0,*68
1513958732.87,40929,7.56,73248.0,-12.17,-12.89,-12.83,0,*69
1513958734.11,40930,7.56,73226.0,-12.17,-12.89,-12.83,0,*61
1513958735.37,40931,7.56,73250.0,-12.17,-12.83,-12.83,0,*6A
1513958736.63,40932,7.56,73260.8,-12.17,-12.83,-12.83,0,*69
1513958737.87,40933,7.56,73248.0,-12.17,-12.89,-12.83,0,*62
1513958739.12,40934,7.56,73216.0,-12.17,-12.83,-12.83,0,*6F
1513958740.34,40935,7.56,73222.8,-12.17,-12.89,-12.89,0,*6E
1513958741.58,40936,7.56,73252.0,-12.17,-12.83,-12.89,0,*67
1513958742.84,40937,7.56,73238.5,-12.13,-12.79,-12.79,0,*68
1513958744.08,40938,7.56,73236.8,-12.17,-12.89,-12.83,0,*69
1513958745.32,40939,7.56,73218.8,-12.19,-12.89,-12.89,0,*6C
1513958746.56,40940,7.56,73208.5,-12.17,-12.89,-12.83,0,*66
1513958747.77,40941,7.56,73196.5,-12.17,-12.89,-12.89,0,*6D
1513958749.01,40942,7.56,73178.5,-12.19,-12.89,-12.89,0,*60
1513958750.23,40943,7.56,73176.3,-12.17,-12.89,-12.89,0,*6F
1513958751.46,40944,7.56,73108.8,-12.17,-12.89,-12.83,0,*62
1513958752.72,40945,7.56,73092.5,-12.17,-12.83,-12.83,0,*69
1513958753.94,40946,7.56,73102.3,-12.13,-12.89,-12.89,0,*6E
1513958755.2,40947,7.56,73122.0,-12.17,-12.83,-12.83,0,*6B
1513958756.41,40948,7.56,73136.8,-12.17,-12.89,-12.89,0,*64
1513958757.67,40949,7.56,73166.3,-12.13,-12.83,-12.79,0,*64
1513958758.94,40950,7.56,73176.0,-12.13,-12.79,-12.83,0,*6C
1513958760.17,40951,7.56,73198.3,-12.17,-12.83,-12.89,0,*66
1513958761.41,40952,7.56,73198.8,-12.17,-12.89,-12.83,0,*65
1513958762.67,40953,7.56,73202.5,-12.17,-12.83,-12.83,0,*6E
1513958763.93,40954,7.56,73204.3,-12.17,-12.83,-12.83,0,*69
1513958765.14,40955,7.56,73202.5,-12.17,-12.89,-12.89,0,*68
1513958766.38,40956,7.56,73200.0,-12.17,-12.83,-12.89,0,*61
1513958767.64,40957,7.56,73184.0,-12.17,-12.83,-12.83,0,*6A
1513958768.9,40958,7.56,73164.3,-12.17,-12.83,-12.83,0,*65
1513958770.16,40959,7.56,73154.5,-12.17,-12.83,-12.83,0,*64
1513958771.39,40960,7.56,73154.5,-12.17,-12.83,-12.89,0,*64
1513958772.65,40961,7.56,73164.8,-12.17,-12.83,-12.75,0,*66
1513958773.89,40962,7.56,73160.0,-12.17,-12.83,-12.89,0,*66
1513958775.1,40963,7.56,73164.0,-12.17,-12.89,-12.89,0,*6D
1513958776.37,40964,7.56,73186.0,-12.17,-12.83,-12.75,0,*63
1513958777.6,40965,7.56,73180.3,-12.17,-12.89,-12.83,0,*61
1513958778.84,40966,7.56,73184.8,-12.17,-12.89,-12.83,0,*62
1513958780.1,40967,7.56,73188.0,-12.13,-12.83,-12.79,0,*68
1513958781.34,40968,7.56,73168.5,-12.17,-12.83,-12.89,0,*6C
1513958782.6,40969,7.56,73170.5,-12.17,-12.83,-12.83,0,*67
1513958783.87,40970,7.56,73156.3,-12.13,-12.79,-12.79,0,*6B
1513958785.13,40971,7.56,73166.3,-12.17,-12.83,-12.75,0,*67
1513958786.4,40972,7.56,73202.8,-12.13,-12.79,-12.79,0,*69
1513958787.66,40973,7.56,73208.0,-12.13,-12.79,-12.83,0,*6D
1513958788.92,40974,7.56,73206.3,-12.17,-12.83,-12.75,0,*62
1513958790.18,40975,7.56,73200.3,-12.17,-12.83,-12.75,0,*63
1513958791.45,40976,7.56,73224.5,-12.17,-12.71,-12.75,0,*6D
1513958792.71,40977,7.56,73242.8,-12.17,-12.83,-12.83,0,*68
1513958793.97,40978,7.56,73242.5,-12.13,-12.79,-12.83,0,*66
1513958795.24,40979,7.56,73242.0,-12.17,-12.79,-12.79,0,*66
1513958796.5,40980,7.56,73254.0,-12.17,-12.83,-12.83,0,*60
1513958797.76,40981,7.56,73258.8,-12.17,-12.83,-12.83,0,*61
1513958799.0,40982,7.56,73240.5,-12.17,-12.89,-12.83,0,*68
1513958800.26,40983,7.56,73222.8,-12.17,-12.83,-12.83,0,*63
1513958801.52,40984,7.56,73198.5,-12.17,-12.75,-12.75,0,*64
1513958802.78,40985,7.56,73230.5,-12.17,-12.83,-12.83,0,*65
1513958804.05,40986,7.56,73246.0,-12.17,-12.83,-12.75,0,*6F
1513958805.32,40987,7.56,73228.5,-12.13,-12.79,-12.71,0,*6B
1513958806.59,40988,7.56,73226.3,-12.17,-12.75,-12.75,0,*68
1513958807.86,40989,7.56,73216.8,-12.17,-12.71,-12.71,0,*69
1513958809.12,40990,7.56,73228.8,-12.13,-12.79,-12.79,0,*65
1513958810.38,40991,7.56,73204.8,-12.17,-12.83,-12.83,0,*60
1513958811.65,40992,7.56,73192.8,-12.13,-12.71,-12.71,0,*67
1513958812.92,40993,7.56,73188.8,-12.13,-12.71,-12.79,0,*6E
1513958814.18,40994,7.56,73192.5,-12.13,-12.71,-12.83,0,*6C
1513958815.44,40995,7.56,73182.0,-12.17,-12.83,-12.83,0,*64
1513958816.71,40996,7.56,73206.3,-12.17,-12.71,-12.75,0,*63
1513958817.98,40997,7.56,73196.5,-12.17,-12.75,-12.75,0,*66
1513958819.25,40998,7.56,73180.3,-12.13,-12.71,-12.71,0,*6D
1513958820.52,40999,7.56,73198.5,-12.17,-12.79,-12.71,0,*60
1513958821.78,41000,7.56,73198.3,-12.17,-12.83,-12.75,0,*69
1513958823.05,41001,7.56,73204.8,-12.13,-12.71,-12.71,0,*65
1513958824.32,41002,7.56,73178.5,-12.13,-12.71,-12.71,0,*66
1513958825.59,41003,7.56,73162.5,-12.13,-12.83,-12.71,0,*6A
1513958826.85,41004,7.56,73160.0,-12.17,-12.83,-12.75,0,*6D
1513958828.12,41005,7.56,73172.8,-12.17,-12.79,-12.71,0,*6D
1513958829.39,41006,7.56,73220.8,-12.13,-12.71,-12.71,0,*62
1513958830.66,41007,7.56,73214.0,-12.13,-12.79,-12.71,0,*6B
1513958831.92,41008,7.56,73202.3,-12.17,-12.83,-12.75,0,*61
1513958833.19,41009,7.56,73168.3,-12.13,-12.79,-12.71,0,*65
1513958834.46,41010,7.56,73152.0,-12.13,-12.79,-12.79,0,*65
1513958835.72,41011,7.56,73116.3,-12.17,-12.83,-12.83,0,*60
1513958836.98,41012,7.56,73136.0,-12.17,-12.75,-12.83,0,*6A
1513958838.25,41013,7.56,73140.5,-12.13,-12.83,-12.79,0,*63
1513958839.52,41014,7.56,73156.3,-12.13,-12.79,-12.71,0,*69
1513958840.79,41015,7.56,73158.8,-12.13,-12.79,-12.71,0,*68
1513958842.06,41016,7.56,73170.8,-12.13,-12.79,-12.71,0,*6B
1513958843.32,41017,7.56,73158.3,-12.17,-12.83,-12.75,0,*6F
1513958844.58,41018,7.56,73154.3,-12.13,-12.65,-12.79,0,*60
1513958845.85,41019,7.56,73150.8,-12.17,-12.75,-12.75,0,*68
1513958847.12,41020,7.56,73148.0,-12.13,-12.71,-12.71,0,*66
1513958848.4,41021,7.56,73158.3,-12.17,-12.75,-12.71,0,*67
1513958849.66,41022,7.56,73174.3,-12.17,-12.71,-12.83,0,*6D
1513958850.92,41023,7.56,73188.5,-12.13,-12.71,-12.83,0,*68
1513958852.19,41024,7.56,73152.5,-12.13,-12.83,-12.79,0,*67
1513958853.46,41025,7.56,73158.0,-12.13,-12.79,-12.71,0,*6B
1513958854.73,41026,7.56,73150.8,-12.13,-12.79,-12.71,0,*68
1513958855.99,41027,7.56,73148.0,-12.17,-12.83,-12.83,0,*65
1513958857.25,41028,7.56,73172.3,-12.13,-12.83,-12.71,0,*63
1513958858.52,41029,7.56,73168.3,-12.17,-12.83,-12.75,0,*62
1513958859.81,41030,7.56,73194.0,-12.11,-12.79,-12.79,0,*65
1513958861.1,41031,7.56,73196.5,-12.11,-12.79,-12.71,0,*6C
1513958862.36,41032,7.56,73178.8,-12.13,-12.83,-12.83,0,*65
1513958863.63,41033,7.56,73172.8,-12.13,-12.79,-12.79,0,*64
1513958864.9,41034,7.56,73180.0,-12.13,-12.79,-12.71,0,*6B
1513958866.17,41035,7.56,73176.0,-12.13,-12.79,-12.71,0,*6A
1513958867.43,41036,7.56,73164.8,-12.17,-12.83,-12.83,0,*65
1513958868.69,41037,7.56,73154.0,-12.13,-12.83,-12.79,0,*65
1513958869.99,41038,7.56,73156.5,-12.11,-12.79,-12.71,0,*65
1513958871.25,41039,7.56,73148.5,-12.13,-12.79,-12.79,0,*6E
1513958872.52,41040,7.56,73166.0,-12.13,-12.79,-12.83,0,*65
1513958873.78,41041,7.56,73216.8,-12.13,-12.71,-12.79,0,*69
1513958875.04,41042,7.56,73204.0,-12.17,-12.83,-12.83,0,*66
1513958876.31,41043,7.56,73148.5,-12.13,-12.79,-12.79,0,*63
1513958877.57,41044,7.56,73160.0,-12.13,-12.83,-12.79,0,*61
1513958878.84,41045,7.56,73170.5,-12.17,-12.79,-12.83,0,*64
1513958880.1,41046,7.56,73142.8,-12.13,-12.79,-12.83,0,*63
1513958881.37,41047,7.56,73100.8,-12.13,-12.79,-12.79,0,*67
1513958882.63,41048,7.56,73138.5,-12.13,-12.79,-12.83,0,*6D
1513958883.89,41049,7.56,73142.5,-12.17,-12.83,-12.75,0,*64
1513958885.16,41050,7.56,73142.3,-12.13,-12.79,-12.79,0,*61
1513958886.42,41051,7.56,73146.0,-12.13,-12.83,-12.83,0,*60
1513958887.68,41052,7.56,73136.3,-12.13,-12.79,-12.79,0,*63
1513958888.95,41053,7.56,73176.5,-12.13,-12.83,-12.79,0,*67
1513958890.21,41054,7.56,73162.3,-12.13,-12.79,-12.79,0,*65
1513958891.48,41055,7.56,73130.5,-12.13,-12.79,-12.79,0,*64
1513958892.75,41056,7.56,73156.0,-12.13,-12.79,-12.79,0,*67
1513958894.04,41057,7.56,73186.3,-12.11,-12.79,-12.79,0,*64
1513958895.33,41058,7.56,73218.3,-12.11,-12.79,-12.79,0,*6B
1513958896.62,41059,7.56,73106.5,-12.11,-12.83,-12.71,0,*67
1513958897.91,41060,7.56,73048.3,-12.11,-12.83,-12.83,0,*60
1513958899.17,41061,7.56,73094.5,-12.13,-12.79,-12.79,0,*63